"Pseudo-MPEC" for P10HNcJ

Created 2018 Jun 17 17:18:16 UT using Find_Orb

Click here for an explanation of pseudo-MPECs

 
 Astrometry: 
     P10HNcJ  C2018 06 145DAstrometryVb_kxg)9QTmNer=E\v?.*Z@L6F/+xxb`]-9$6RVDF51
     P10HNcJ  C2018 06 14*0LGU/wt='T8SD^=xD;w,V4mI9^Uo(/S8\mkxBbYvgu9*s]yJC/_F51
     P10HNcJ  C2018 06 1462RNhGWwTo3.=$,_A@5A-047*KjTHTm_fE3TFD,:?/1xop?5+:BOF51
     P10HNcJ KC2018 06 143$TIXHbDmOS:N9nh2#S0sIOb.D+JsJMvYP.'l-Nv`BJS78e:kvgn474
     P10HNcJ KC2018 06 14%PI5'vS+$*dT8E!Etw_pG8-9$^TCRYs.]b5Ypu7_F8_G83DQ)kjk474
     P10HNcJ KC2018 06 14^HmBjN[\rL,vGCv`iredacted;iy6[242Ya=$._x3J4CPtsQp7a9474
     P10HNcJ |C2018 06 15kRt#f`sF=ZcAh#HAj]:,ZD'Tuy$g`=Xlk[YQ/Yniv62y8SD068K]807
     P10HNcJ |C2018 06 15w%Xv)y7FW)kmBu7EL'W%sdI)UbEEC_WshW0hhnY5d!7`l7fMHkF3807
     P10HNcJ |C2018 06 15;OB#uHr-YEOjV=Y$Pnh+`(RQn%y:LfU!.2P0hHqGnFl$=%\GsJS3807
     P10HNcJ KC2018 06 15-+U0o\^J8G6hW$k)9OrqGwSnJW!8d,V@seeqN5-g:E4*4E/%NirX291
     P10HNcJ KC2018 06 15aiY8BMbS)518`_MnLA9:L'`5`h$X?GYWCa?wjtoY+-@D4hqV'e\/291
     P10HNcJ KC2018 06 15KqI:O(nn)NKM5D$Ys8#2:MJ(8`kdWnX`vLTTY-C$ev^;'2(O]dAC291
     P10HNcJ |C2018 06 17U+U#=oDJZx)ABa,x^D98bAnt#w1g/vJyA3Se]3A.:(:8@^,X'Lu*807
     P10HNcJ |C2018 06 17I`qhoGl3F3!S^gKYve6W\Oc;ODg$N7?yY4FKG8#GE;4pOd5kUmM*807
     P10HNcJ |C2018 06 170h3U0l]!1]Zy]+!*wX+CNtm#^)n9PAw:d1ot#-u4D/3'nifNEOCP807

Station data:
(291) LPL/Spacewatch II  (N31.961669 W111.599905)  US/Arizona.  Observers J.
   V. Scotti, R. S. McMillan. 1.8-m f/2.7 reflector + CCD.
(474) Mount John Observatory, Lake Tekapo  (S43.987388 E170.464960)  New
   Zealand.  Observers A. C. Gilmore, P. M. Kilmartin. Measurer P. M.
   Kilmartin. 1.0-m f/7.7 reflector + CCD.
(807) Cerro Tololo Observatory, La Serena  (S30.169136 W70.805900)  Chile.
   1.5-m Ritchey-Chrétien.
(F51) Pan-STARRS 1, Haleakala  (N20.707235 W156.255910)  US/Hawaii.
   Observers N. Primak, A. Schultz, S. Watters, J. Thiel, T. Goggia. Measurer
   PS1 Science Consortium. 1.8-m Ritchey-Chrétien + CCD.

Orbital elements:  P10HNcJ
   Perihelion 2018 Apr 25.926939 +/- 0.14 TT = 22:14:47 (JD 2458234.426939)
Epoch 2018 Jun 17.0 TT = JDT 2458286.5   Earth MOID: 0.0649   Ma: 0.0919
M  37.56802 +/- 0.13                (J2000 ecliptic)          AutoNEOCP
n   0.72144836 +/- 0.000961         Peri.  290.94389 +/- 0.15
a   1.23121116 +/- 0.00109          Node   281.93211 +/- 0.022
e   0.1497990 +/- 0.000585          Incl.    3.48653 +/- 0.011
P   1.37/498.99d           H 24.9   G  0.15   U  8.1  
q 1.04677685 +/- 0.000297    Q 1.41564548 +/- 0.00196
From 15 observations 2018 June 14-17; mean residual 0".36
Residuals in arcseconds: 
180614 F51  .19+  .20-    180614 474  .03+  .04-    180615 291  .13-  .05+    
180614 F51  .21+  .01+    180615 807  .02-  .23+    180615 291  .15+  .96-    
180614 F51  .01+  .31-    180615 807  .10+  .34+    180617 807  .15+  .15-    
180614 474  .01-  .14+    180615 807  .29-  .04+    180617 807  .05+  .20-    
180614 474  .16-  .39-    180615 291  .22-  1.4+    180617 807  .05-  .03+    

Ephemerides (geocentric):
Date (UTC) HH   RA              Dec         delta   r     elong  mag " sig PA
---- -- -- --  -------------   -----------  ------ ------ -----  --- ---- ---
2018 06 17 17  15 02 12.684   -29 59 55.21  .10072 1.0986 143.6 21.6  .02 137
2018 06 17 18  15 02 25.138   -29 58 40.49  .10080 1.0987 143.6 21.6  .02 140
2018 06 17 19  15 02 37.578   -29 57 25.82  .10088 1.0988 143.6 21.6  .02 143
2018 06 17 20  15 02 50.004   -29 56 11.19  .10095 1.0989 143.6 21.6  .03 145
2018 06 17 21  15 03 02.416   -29 54 56.61  .10103 1.0989 143.6 21.6  .03 147
2018 06 17 22  15 03 14.814   -29 53 42.06  .10111 1.0990 143.6 21.6  .03 149
2018 06 17 23  15 03 27.198   -29 52 27.56  .10119 1.0991 143.6 21.6  .04 150
2018 06 18 00  15 03 39.568   -29 51 13.11  .10126 1.0992 143.6 21.6  .04 151
2018 06 18 01  15 03 51.924   -29 49 58.69  .10134 1.0992 143.6 21.6  .04 152
2018 06 18 02  15 04 04.267   -29 48 44.32  .10142 1.0993 143.6 21.6  .04 153
2018 06 18 03  15 04 16.595   -29 47 30.00  .10150 1.0994 143.6 21.6  .05 153
2018 06 18 04  15 04 28.909   -29 46 15.72  .10158 1.0995 143.7 21.6  .05 154
2018 06 18 05  15 04 41.210   -29 45 01.48  .10166 1.0996 143.7 21.6  .05 154
2018 06 18 06  15 04 53.496   -29 43 47.29  .10173 1.0996 143.7 21.6  .06 155
2018 06 18 07  15 05 05.769   -29 42 33.14  .10181 1.0997 143.7 21.6  .06 155
2018 06 18 08  15 05 18.028   -29 41 19.04  .10189 1.0998 143.7 21.6  .06 156
2018 06 18 09  15 05 30.273   -29 40 04.99  .10197 1.0999 143.7 21.6  .07 156
2018 06 18 10  15 05 42.504   -29 38 50.98  .10205 1.0999 143.7 21.6  .07 156
2018 06 18 11  15 05 54.721   -29 37 37.02  .10213 1.1000 143.7 21.6  .07 156
2018 06 18 12  15 06 06.925   -29 36 23.11  .10221 1.1001 143.7 21.6  .07 157
2018 06 18 13  15 06 19.114   -29 35 09.24  .10229 1.1002 143.7 21.6  .08 157
2018 06 18 14  15 06 31.290   -29 33 55.42  .10237 1.1002 143.7 21.6  .08 157
2018 06 18 15  15 06 43.452   -29 32 41.64  .10245 1.1003 143.7 21.6  .08 157
2018 06 18 16  15 06 55.601   -29 31 27.92  .10253 1.1004 143.7 21.6  .09 157
2018 06 18 17  15 07 07.736   -29 30 14.24  .10261 1.1005 143.7 21.6  .09 157
2018 06 18 18  15 07 19.857   -29 29 00.61  .10269 1.1005 143.7 21.6  .09 157
2018 06 18 19  15 07 31.964   -29 27 47.03  .10277 1.1006 143.8 21.6  .10 157
2018 06 18 20  15 07 44.058   -29 26 33.50  .10285 1.1007 143.8 21.6  .10 157
2018 06 18 21  15 07 56.138   -29 25 20.01  .10293 1.1008 143.8 21.6  .11 157
2018 06 18 22  15 08 08.204   -29 24 06.58  .10301 1.1008 143.8 21.6  .11 158
2018 06 18 23  15 08 20.257   -29 22 53.19  .10309 1.1009 143.8 21.6  .11 158
2018 06 19 00  15 08 32.296   -29 21 39.86  .10317 1.1010 143.8 21.6  .12 158
2018 06 19 01  15 08 44.321   -29 20 26.57  .10325 1.1011 143.8 21.6  .12 158
2018 06 19 02  15 08 56.333   -29 19 13.34  .10333 1.1012 143.8 21.6  .12 158
2018 06 19 03  15 09 08.331   -29 18 00.16  .10341 1.1012 143.8 21.6  .13 158
2018 06 19 04  15 09 20.316   -29 16 47.02  .10349 1.1013 143.8 21.6  .13 158
2018 06 19 05  15 09 32.287   -29 15 33.94  .10357 1.1014 143.8 21.6  .13 158
2018 06 19 06  15 09 44.245   -29 14 20.91  .10365 1.1015 143.8 21.6  .14 158
2018 06 19 07  15 09 56.189   -29 13 07.93  .10374 1.1015 143.8 21.6  .14 157
2018 06 19 08  15 10 08.120   -29 11 55.00  .10382 1.1016 143.8 21.6  .15 157
2018 06 19 09  15 10 20.037   -29 10 42.12  .10390 1.1017 143.8 21.6  .15 157
2018 06 19 10  15 10 31.941   -29 09 29.30  .10398 1.1018 143.8 21.6  .15 157
2018 06 19 11  15 10 43.831   -29 08 16.52  .10406 1.1018 143.8 21.6  .16 157
2018 06 19 12  15 10 55.708   -29 07 03.80  .10415 1.1019 143.9 21.6  .16 157
2018 06 19 13  15 11 07.571   -29 05 51.14  .10423 1.1020 143.9 21.6  .17 157
2018 06 19 14  15 11 19.421   -29 04 38.52  .10431 1.1021 143.9 21.6  .17 157
2018 06 19 15  15 11 31.258   -29 03 25.96  .10439 1.1022 143.9 21.6  .17 157
2018 06 19 16  15 11 43.081   -29 02 13.45  .10448 1.1022 143.9 21.6  .18 157